Regional Weather Roundup
Issued by NWS

Home | Current Version | Previous Version | Graphics & Text | Print | Product List | Glossary On
Versions: 1 2 3 4 5 6 7 8 9 10 11 12 13 14 15 16 17 18 19 20 21 22 23 24 25 26 27
000
ASUS45 KBOI 250910
RWRID

IDAHO REGIONAL WEATHER ROUNDUP
NATIONAL WEATHER SERVICE BOISE ID
300 AM MDT WED MAY 25 2016

NOTE: "FAIR" INDICATES FEW OR NO CLOUDS BELOW 12000 FEET
WITH NO SIGNIFICANT WEATHER AND/OR OBSTRUCTIONS TO VISIBILITY

IDZ012-014-251000-
SOUTHWEST IDAHO


CITY           SKY/WX    TMP DP  RH WIND       PRES   REMARKS
BOISE          PTCLDY    53  41  63 NW5       29.92R
CALDWELL       PTCLDY    55  43  63 W10       29.92S
MOUNTAIN HOME  MOCLDY    56  40  53 N7        29.91R
$$

IDZ016-017-251000-
SOUTHCENTRAL IDAHO


CITY           SKY/WX    TMP DP  RH WIND       PRES   REMARKS
BURLEY         CLOUDY    49  40  71 SW10      29.92R
JEROME         CLEAR     47  40  76 S6        29.93R
TWIN FALLS     PTCLDY    49  38  65 S13       29.93S
$$

IDZ019>023-251000-
SOUTHEAST IDAHO


CITY           SKY/WX    TMP DP  RH WIND       PRES   REMARKS
IDAHO FALLS    CLOUDY    47  44  90 NE3       29.96R
POCATELLO      CLOUDY    48  44  86 CALM      29.95S
REXBURG        CLOUDY    44  41  89 NE8       29.96S
$$

IDZ006-010-011-018-031-032-251000-
CENTRAL IDAHO MOUNTAINS


CITY           SKY/WX    TMP DP  RH WIND       PRES   REMARKS
MCCALL         CLEAR     40  36  86 N5        29.95S
HAILEY         PTCLDY    43  37  81 NW6       29.96S
STANLEY          N/A     38  32  79 S3        29.99R
SALMON         PTCLDY    45  37  76 CALM      29.94S
CHALLIS        MOCLDY    44  40  85 CALM      29.96S
$$

IDZ002-004-006-007-026-251000-
NORTHERN IDAHO


CITY           SKY/WX    TMP DP  RH WIND       PRES   REMARKS
LEWISTON       CLEAR     51  45  79 S3        29.95R
LOWELL           N/A     48  46  93 N3        30.00S
COEUR D`ALENE  PTCLDY    48  45  87 SE6       29.93R
MULLAN PASS    FOG       38  38 100 NW6       29.99R VSB 1/4 WCI  33
$$




USA.gov is the U.S. government's official web portal to all federal, state and local government web resources and services.